www.pogodaiklimat.ru

Погода и климат >> Архив погоды >> Нигер >> Тиллабери


ПОГОДА в Тиллабери

  • Прогноз погоды в Тиллабери
  • Монитор погоды в Тиллабери

АРХИВ ПОГОДЫ в Тиллабери

Время (UTC), дата Ветер
(напр.,м/с)
 
Видим.   Явления Облачность Т
(С)
Тd
(С)
f
(%)
Тe
(С)
Тes
(С)
Комфортность P
(гПа)
Po
(гПа)
Тmin
(С)
Tmax
(С)
R
(мм)
R24
(мм)
S
(см)
03 11.06 штиль 0 10 км зарница 9/1 1200 м
[Cb cap Cs]
+32.0 +22.7 58 +42 +42 опасность
перегрева
1007.8 985.0
06 11.06 ЮЗ 6 10 км 9/0
[Ac As Ci sp]
+31.0 +23.4 64 +42 +42 опасность
перегрева
1009.1 986.0 +30.8
09 11.06 ЮЗ 10 10 км 9/4 1200 м
[Cu med, cong Ci sp]
+33.7 +22.8 53 +44 +44 опасность
перегрева
1011.0 987.9
12 11.06 ЮЗ 8 10 км 9/4 1200 м
[Cu med, cong Ci sp]
+36.4 +22.2 44 +45 +47 опасность
перегрева
1010.0 987.0
15 11.06 З 8 10 км 6/3 1200 м
[Cu med, cong Ci sp]
+39.0 +20.1 34 +45 +46 опасность
перегрева
1007.2 984.4
18 11.06 З 4 10 км 4/1 1200 м
[Cu med, cong Ci fib]
+37.7 +19.9 36 +43 +43 опасность
перегрева
1007.2 984.2 +49.8
21 11.06 штиль 0 10 км 4/1 1200 м
[Cu med, cong Ci fib]
+35.0 +22.1 47 +44 +44 опасность
перегрева
1008.5 985.5
03 12.06 штиль 0 10 км зарница 9/3 1500 м
[Cb cap Cs]
+31.6 +23.0 60 +42 +42 опасность
перегрева
1008.7 985.8
06 12.06 штиль 0 10 км гроза, ливневой дождь 10/3 1500 м
[Cb cap Ac As]
+24.4 +21.6 84 +31 +31 очень
душно
1010.7 987.4 +21.8 28
09 12.06 СВ 4 10 км {гроза, дождь} 9/0
[Ac As Ci sp]
+28.5 +24.3 78 +40 +43 очень
душно
1013.5 990.2
12 12.06 СЗ 6 10 км {гроза, дождь} 9/1 1200 м
[Cu hum Ac lent Ci sp]
+33.4 +23.2 55 +44 +48 опасность
перегрева
1011.7 988.7 0.2
15 12.06 СЗ 4 10 км 9/0
[Ac lent Ci sp]
+36.0 +22.4 46 +45 +50 опасность
перегрева
1008.7 985.7
18 12.06 штиль 0 10 км 9/0
[Cs]
+35.5 +21.9 45 +44 +44 опасность
перегрева
1008.1 984.8 +36.6 0.2
21 12.06 штиль 0 10 км 9/0
[Ac trans Cs]
+32.2 +22.6 57 +42 +42 опасность
перегрева
1009.8 986.5
03 13.06 штиль 0 10 км 6/0
[Cs]
+28.2 +25.2 84 +41 +41 опасность
перегрева
1010.3 987.1
06 13.06 штиль 0 10 км 9/0
[Ac trans Cs]
+27.5 +22.5 74 +36 +36 очень
душно
1011.0 987.8 +27.2 0.2
09 13.06 ЮЗ 4 10 км 9/0
[Cs]
+32.0 +21.6 54 +40 +47 очень
душно
1012.3 989.0
12 13.06 С 4 10 км 9/1 1200 м
[Cu hum Cs]
+36.8 +19.4 36 +42 +53 опасность
перегрева
1011.0 988.0
15 13.06 ЮВ 4 15 км 9/1 1200 м
[Cu hum Cs]
+39.4 +19.9 32 +44 +50 опасность
перегрева
1008.8 985.8
18 13.06 штиль 0 10 км 9/0
[Cs]
+37.4 +19.8 36 +43 +43 опасность
перегрева
1008.4 985.3 +40.0
21 13.06 штиль 0 10 км 9/0
[Cs]
+34.0 +22.3 51 +43 +43 опасность
перегрева
1009.4 986.3
03 14.06 штиль 0 10 км 6/0
[Ci sp]
+31.0 +22.1 59 +40 +40 очень
душно
1009.0 986.3
06 14.06 штиль 0 10 км 6/0
[Ac trans Ci sp]
+29.5 +23.9 72 +41 +41 опасность
перегрева
1010.3 987.2 +29.0
09 14.06 ЮЗ 4 10 км 9/0
[Cs]
+32.8 +22.2 54 +42 +49 опасность
перегрева
1012.0 988.9
12 14.06 СЗ 6 10 км 9/0
[Cs]
+38.2 +20.0 35 +44 +51 опасность
перегрева
1010.0 987.0
15 14.06 З 4 10 км 9/3 1000 м
[Cu med, cong Cs]
+41.0 +13.2 19 +41 +45 опасность
перегрева
1008.4 958.9
18 14.06 В 2 10 км 9/1 1200 м
[Cu med, cong Cs]
+40.4 +15.1 23 +42 +42 опасность
перегрева
1006.9 984.0 +42.4
21 14.06 штиль 0 10 км 9/0
[Cs]
+37.6 +17.8 31 +41 +41 опасность
перегрева
1009.0 985.8
03 15.06 штиль 0 10 км 9/0
[Cs]
+31.4 +23.5 63 +42 +42 опасность
перегрева
1008.3 985.5
06 15.06 ЮЗ 2 10 км 9/0
[Ac trans Cs]
+30.5 +23.6 67 +42 +42 опасность
перегрева
1009.0 986.1 +30.5
09 15.06 З 6 10 км 9/0
[Ac trans Cs]
+34.2 +22.9 52 +44 +48 опасность
перегрева
1010.4 987.5
12 15.06 ЮЗ 4 10 км 9/0
[Cs]
+38.5 +21.3 37 +45 +57 опасность
перегрева
1009.3 986.5
15 15.06 ЮЗ 4 10 км 9/1 1200 м
[Cu hum Cs]
+40.5 +20.5 32 +46 +52 опасность
перегрева
1007.4 984.6
18 15.06 штиль 0 10 км 9/1 1200 м
[Cb cap Ac lent Cs]
+39.5 +20.6 34 +46 +46 опасность
перегрева
1007.5 984.6 +41.5
21 15.06 Ю 6 10 км зарница 9/1 1200 м
[Cb cap Ac lent Ci sp]
+35.0 +20.9 44 +42 +42 опасность
перегрева
1008.8 985.9
03 16.06 ЮЗ 6 10 км 9/0
[Cs]
+31.2 +23.9 65 +43 +43 опасность
перегрева
1009.5 986.6
06 16.06 ЮЗ 2 10 км 9/0
[Cs]
+30.5 +24.2 69 +42 +43 опасность
перегрева
1010.1 987.1 +30.0
09 16.06 З 6 10 км 9/0
[Cs]
+34.0 +22.9 52 +44 +48 опасность
перегрева
1010.9 987.9
12 16.06 ЮЗ 4 10 км 9/0
[Cs]
+38.8 +21.1 36 +45 +57 опасность
перегрева
1010.4 987.6
15 16.06 ЮЗ 4 10 км 9/3 1200 м
[Cu hum Cs]
+41.5 +19.1 28 +46 +50 опасность
перегрева
1008.2 985.4
18 16.06 В 8 10 км гроза без осадков 9/1 1200 м
[Cb cap Ac As Ci sp]
+40.0 +19.3 30 +44 +44 опасность
перегрева
1009.0 986.1 +41.8
21 16.06 З 4 10 км зарница {гроза, дождь} 9/1 1200 м
[Cb cap Cs]
+31.4 +21.9 57 +40 +40 очень
душно
1009.3 986.2
03 17.06 штиль 0 10 км 9/0
[Ac lent Cs]
+28.4 +20.3 62 +35 +35 очень
душно
1008.7 985.9
06 17.06 штиль 0 10 км 9/0
[Cs]
+28.0 +21.9 69 +36 +36 очень
душно
1009.8 986.8 +28.0 2
09 17.06 ЮЗ 6 10 км 9/0
[Cs]
+32.2 +20.1 49 +39 +43 очень
душно
1011.9 988.7
12 17.06 ЮЗ 6 10 км 9/0
[Cs]
+37.0 +19.3 36 +42 +49 опасность
перегрева
1011.0 987.9
15 17.06 СЗ 6 10 км 9/0
[Cs]
+39.5 +18.9 30 +43 +47 опасность
перегрева
1008.6 985.6
18 17.06 штиль 0 10 км 9/0
[Cs]
+39.0 +19.2 32 +44 +44 опасность
перегрева
1008.1 985.1 +40.0
21 17.06 штиль 0 10 км 9/0
[Cs]
+34.5 +21.5 47 +42 +42 опасность
перегрева
1009.2 986.2

 

Местоположение метеостанции Тиллабери (Нигер): широта 14.20 долгота 1.45 высота над уровнем моря 210 м.

В архиве по умолчанию представлена погода в Тиллабери за последнюю неделю. Архивные данные за месяц целиком и за предыдущие месяцы, начиная с января 2011 года, Вы можете получить, выбрав интересующий диапазон дат из раскрывающегося списка и нажав кнопку "Ввод!".


*Определитесь, кто Вы:
робот инопланетянин человек

Внимание! Время в таблицах - всемирное. Для получения местного времени необходимо прибавить поправку, которая равна 1 ч.

Смотрите также архив погоды в соседних городах и на ближайших метеорологических станциях:

Погода в Ниамее (Нигер) (112 км)
Погода в Дори (Буркина-Фасо) (161 км)
Погода в Досо (Нигер) (231 км)
Погода в Фада-Нгурме (Буркина-Фасо) (268 км)
Погода в Гае (Нигер) (337 км)
Погода в Канди (Бенин) (377 км)
Погода в Уагадугу (Буркина-Фасо) (382 км)
Погода в Дапаоне (Того) (389 км)
Погода в Вирнин-Конни (Нигер) (413 км)
Погода в Тахве (Нигер) (416 км)

Пояснения к столбцам:

Ветер - указаны скорость ветра в м/с - средняя за 10 мин, порывы в срок и между сроками (в фигурных скобках) и направление, откуда дует ветер: С - северный, СВ - северо-восточный, В - восточный, ЮВ - юго-восточный, Ю - южный, ЮЗ - юго-западный, З - западный, СЗ - северо-западный.
Видимость - горизонтальная дальность видимости в метрах или километрах. При видимости от 1 до 10 км при отсутствии осадков обычно наблюдается дымка, при ухудшении видимости до 1 км и менее - туман. В сухую погоду видимость может ухудшаться дымом, пылью или мглою.
Явления - указаны атмосферные явления, наблюдавшиеся в срок или в последний час перед сроком; фигурными скобками обозначены явления, наблюдавшиеся между сроками (за 1-3 часа до срока); квадратными скобками обозначены град или гололедные отложения с указанием их диаметра в мм.
Облачность - указаны через наклонную черту общая и нижняя облачность в баллах и высота нижней границы облаков в метрах; квадратными скобками обозначены формы облаков: Ci - перистые, Cs - перисто-слоистые, Cc - перисто-кучевые, Ac - высококучевые, As - высокослоистые, Sc - слоисто-кучевые, Ns - слоисто-дождевые, Cu - кучевые, Cb - кучево-дождевые. Подробнее классификацию облаков см. в Атласе облаков (PDF).
T - Температура воздуха - температура, измеренная на высоте 2 м над землей.
Td - Температура точки росы - температура, при понижении до которой содержащийся в воздухе водяной пар достигнет насыщения.
f - Относительная влажность воздуха - влажноcть воздуха, измеренная на высоте 2 м над землей.
Te - Эффективная температура - температура, которую ощущает одетый по сезону человек в тени. Характеристика душности погоды. При расчете учитывается влияние влажности воздуха и скорости ветра на теплоощущения человека.
Tes - Эффективная температура на солнце - температура, которую ощущает человек, с поправкой на солнечный нагрев. Характеристика знойности погоды. Зависит от высоты солнца над горизонтом, облачности и скорости ветра. Ночью, в пасмурную погоду, а также при ветре 12 м/с и более поправка равна нулю.
P - Атмосферное давление - приведенное к уровню моря атмосферное давление.
Po - Атмосферное давление - измеренное на уровне метеостанции атмосферное давление.
Tmin - Минимальная температура - минимум температуры воздуха на высоте 2 м над землей.
Tmax - Максимальная температура - максимум температуры воздуха на высоте 2 м над землей.
R - Количество осадков - Количество выпавших осадков за период времени, мм. При наведении курсора мыши на число - период времени, за который выпало указанное количество осадков.
R24 - Количество осадков - Количество выпавших осадков за 24 часа, мм.
S - Снежный покров - Высота снежного покрова, см. При наведении курсора мыши на число - состояние снежного покрова и степень покрытия местности в баллах.